sat.trackr.live / text

‹ back to catalog

STARLINK-3136

NORAD 49443 · 2021-104AM

PAYLOAD ACTIVE UNKNOWN

§ Identity

Operator
Country
US
Launch date
2021-11-13
Launch site
AFETR
Launch vehicle
Mass (kg)
RCS (m²)

Purposes: comms

External: N2YO · Heavens-Above · Gunter

§ Orbital elements

Epoch: 2026-09-20T03:41:53.438208Z

Period
95.14 min
Inclination
53.2146°
Eccentricity
0.0001504
Mean motion
15.13570545 rev/d
Perigee alt
524.3 km
Apogee alt
526.4 km
Semi-major
6,903.5 km
B*
8.8573e-4
RAAN
53.4213°
Arg perigee
84.5190°
Mean anomaly
275.5976°
Rev number
26,831

§ Raw data

STARLINK-31361 49443U 21104AM  26263.15409072  .00015806  00000+0  88573-3 0  99922 49443  53.2146  53.4213 0001504  84.5190 275.5976 15.13570545268319

JSON: /api/v1/satellites/49443 · /tle

For live sub-satellite position, see the globe view (requires WebGL).

§ Visibility from observer

Set your observer location to see the next 7 days of passes ≥ 10°. The values pass through the URL so the page stays shareable.

No JS? Fill the form by hand. The geolocation button needs JavaScript.